Location: Carabito
(9.8355°N, 67.9249°W)
Time: 00:19:25
(UTC+00:00)

Cosmos 1869 - Pass Details

Date: 23 May 2024
Orbit: 491 x 530 km, 82.5° (Epoch: 12 June)

Event Time Altitude Azimuth Distance (km) Brightness Sun altitude
Rises 09:41:41 0° 349° (N) 2,581 6.9 -7.3°
Reaches altitude 10° 09:43:50 10° 345° (NNW) 1,693 5.9 -6.8°
Maximum altitude 09:47:27 55° 267° (W) 595 3.2 -6.0°
Drops below altitude 10° 09:51:03 10° 188° (S) 1,680 5.5 -5.1°
Sets 09:53:11 0° 184° (S) 2,560 6.5 -4.7°
